RYR3HU EIDW-LFBH

Flight info

Callsign RYR3HU
Flight time N/A
Altitude 31000
Route PESIT2J PESIT DCT BAKUR DCT GUBJE DCT GISOK DCT TACQI DCT MANIG DCT BADUR DCT KORER UM616 NTS A25 LUSON
Aircraft B738/M-SDE3FGILRWY/SB1

Departure

Time 2026-05-01 07:54
Airport Dublin Airport (EIDW)

Arrival

Time N/A
Airport La Rochelle Île de Ré Airport (LFBH)
Time Latitude Longitude Altitude Speed Heading
2026-05-01 07:30 53.43112 -6.25025 218 ft 0 kts 185°
2026-05-01 07:47 53.43127 -6.25022 214 ft 4 kts 185°
2026-05-01 07:48 53.43181 -6.25017 212 ft 4 kts 176°
2026-05-01 07:48 53.43206 -6.25025 211 ft 4 kts 147°
2026-05-01 07:48 53.43219 -6.25052 215 ft 4 kts 104°
2026-05-01 07:49 53.43221 -6.25073 210 ft 0 kts 95°
2026-05-01 07:50 53.43220 -6.25055 214 ft 6 kts 95°
2026-05-01 07:51 53.43213 -6.24923 218 ft 15 kts 95°
2026-05-01 07:51 53.43203 -6.24741 213 ft 15 kts 95°
2026-05-01 07:51 53.43193 -6.24566 210 ft 15 kts 95°
2026-05-01 07:52 53.43314 -6.24396 216 ft 14 kts 20°
2026-05-01 07:52 53.43335 -6.24256 210 ft 13 kts 95°
2026-05-01 07:52 53.43326 -6.24089 210 ft 16 kts 95°
2026-05-01 07:53 53.43424 -6.23848 208 ft 14 kts
2026-05-01 07:53 53.43485 -6.23881 210 ft 9 kts 282°
2026-05-01 07:53 53.43499 -6.24118 215 ft 50 kts 275°
2026-05-01 07:53 53.43557 -6.25169 210 ft 129 kts 275°
2026-05-01 07:54 53.43808 -6.29068 1386 ft 172 kts 274°
2026-05-01 07:55 53.45851 -6.34498 3394 ft 220 kts 306°
2026-05-01 07:55 53.47941 -6.38804 4065 ft 262 kts 304°
2026-05-01 07:56 53.50081 -6.47203 6325 ft 266 kts 248°
2026-05-01 07:56 53.47795 -6.51689 8072 ft 256 kts 203°
2026-05-01 07:57 53.46092 -6.52476 8949 ft 256 kts 184°
2026-05-01 07:57 53.42618 -6.51058 10557 ft 269 kts 159°
2026-05-01 07:58 53.38858 -6.48334 11123 ft 314 kts 158°
2026-05-01 07:58 53.34790 -6.45349 12657 ft 323 kts 158°
2026-05-01 07:59 53.30630 -6.42327 14220 ft 330 kts 158°
2026-05-01 07:59 53.26378 -6.39266 15695 ft 335 kts 158°
2026-05-01 08:00 53.17664 -6.33040 18425 ft 348 kts 159°
2026-05-01 08:01 53.10914 -6.28240 20266 ft 357 kts 159°
2026-05-01 08:01 53.08621 -6.26614 20873 ft 359 kts 159°
2026-05-01 08:01 53.06314 -6.24979 21479 ft 362 kts 159°
2026-05-01 08:02 53.02431 -6.22231 22430 ft 367 kts 159°
2026-05-01 08:02 53.00073 -6.20566 23000 ft 370 kts 159°